Weather History for Sparta, TN

Change the Weather History Date:

Saturday, May 18, 2013

  Actual Average (KCSV) Record (KCSV)
Temperature  
Mean Temperature 70 °F 64 °F  
Max Temperature 78 °F 75 °F 90 °F (1962)
Min Temperature 62 °F 54 °F 35 °F (1973)
Degree Days  
Heating Degree Days 0    
Month to date heating degree days  
Since 1 July heating degree days  
Cooling Degree Days 5    
Month to date cooling degree days  
Year to date cooling degree days  
Growing Degree Days 20 (Base 50)    
Moisture  
Dew Point 68 °F    
Average Humidity 95    
Maximum Humidity 100    
Minimum Humidity 78    
Precipitation  
Precipitation 0.00 in 0.16 in 1.75 in (1992)
Month to date precipitation 3.19  
Year to date precipitation 22.21  
Sea Level Pressure  
Sea Level Pressure 30.02 in    
Wind  
Wind Speed 3 mph (SSW)    
Max Wind Speed 7 mph    
Max Gust Speed -    
Visibility 9 miles    
Events      
T = Trace of Precipitation, MM = Missing Value Source: NWS Daily Summary

Daily Weather History Graph

Daily Weather History Graph

Search for Another Location

Airport:

Trip Planner

Search our weather history database for the weather conditions in past years. The results will help you decide how hot, cold, wet, or windy it might be!

Date:

Astronomy

May. 18, 2013 Rise Set
Actual Time 5:33 AM CDT 7:43 PM CDT
Civil Twilight 5:05 AM CDT 8:12 PM CDT
Nautical Twilight 4:29 AM CDT 8:47 PM CDT
Astronomical Twilight 3:51 AM CDT 9:26 PM CDT
Moon 12:58 PM CDT (5/18) 1:12 AM CDT (5/18)
Length of Visible Light 15h 07m
Length of Day
14h 09m
First Quarter, 55% of the Moon is Illuminated
May 18
First Quarter
May 24
Full
May 31
Last Quarter
Jun 8
New
Jun 16
First Quarter

Hourly Weather History & Observations

Time (CDT) Temp. Dew Point Humidity Pressure Visibility Wind Dir Wind Speed Gust Speed Precip Events Conditions
12:15 AM 62.6 °F 62.6 °F 100% 30.04 in 8.0 mi SSE 4.6 mph - N/A   Overcast
12:35 AM 62.6 °F 62.6 °F 100% 30.03 in 6.0 mi South 3.5 mph - N/A   Overcast
12:55 AM 62.6 °F 62.6 °F 100% 30.03 in 2.5 mi SSE 4.6 mph - N/A   Overcast
1:15 AM 62.6 °F 62.6 °F 100% 30.02 in 2.0 mi SE 6.9 mph - N/A   Overcast
1:35 AM 64.4 °F 62.6 °F 94% 30.02 in 3.0 mi SSE 5.8 mph - N/A   Overcast
1:55 AM 64.4 °F 64.4 °F 100% 30.01 in 10.0 mi Variable 4.6 mph - N/A   Overcast
2:15 AM 64.4 °F 64.4 °F 100% 30.01 in 10.0 mi SSE 3.5 mph - N/A   Overcast
2:35 AM 64.4 °F 64.4 °F 100% 30.00 in 10.0 mi Calm Calm - N/A   Overcast
2:55 AM 64.4 °F 64.4 °F 100% 30.01 in 10.0 mi Calm Calm - N/A   Overcast
3:15 AM 64.4 °F 64.4 °F 100% 30.00 in 10.0 mi SSE 3.5 mph - N/A   Overcast
3:35 AM 64.4 °F 64.4 °F 100% 30.01 in 7.0 mi SSE 3.5 mph - N/A   Overcast
3:55 AM 64.4 °F 64.4 °F 100% 30.01 in 10.0 mi Calm Calm - N/A   Overcast
4:15 AM 64.4 °F 64.4 °F 100% 30.00 in 10.0 mi Calm Calm - N/A   Overcast
4:35 AM 64.4 °F 64.4 °F 100% 30.01 in 10.0 mi Calm Calm - N/A   Overcast
4:55 AM 64.4 °F 64.4 °F 100% 30.01 in 10.0 mi South 3.5 mph - N/A   Overcast
5:15 AM 64.4 °F 64.4 °F 100% 30.01 in 10.0 mi Calm Calm - N/A   Overcast
5:35 AM 64.4 °F 64.4 °F 100% 30.02 in 10.0 mi Calm Calm - N/A   Overcast
5:55 AM 64.4 °F 64.4 °F 100% 30.02 in 9.0 mi Calm Calm - N/A   Overcast
6:15 AM 64.4 °F 64.4 °F 100% 30.03 in 6.0 mi South 3.5 mph - N/A   Overcast
6:35 AM 64.4 °F 64.4 °F 100% 30.03 in 10.0 mi SE 3.5 mph - N/A   Mostly Cloudy
6:55 AM 64.4 °F 64.4 °F 100% 30.03 in 10.0 mi Calm Calm - N/A   Mostly Cloudy
7:15 AM 66.2 °F 64.4 °F 94% 30.03 in 10.0 mi Calm Calm - N/A   Overcast
7:35 AM 66.2 °F 66.2 °F 100% 30.04 in 10.0 mi South 3.5 mph - N/A   Overcast
7:55 AM 66.2 °F 66.2 °F 100% 30.04 in 10.0 mi SSW 3.5 mph - N/A   Overcast
8:15 AM 66.2 °F 66.2 °F 100% 30.05 in 10.0 mi SSW 4.6 mph - N/A   Overcast
8:35 AM 66.2 °F 66.2 °F 100% 30.04 in 10.0 mi Calm Calm - N/A   Overcast
8:55 AM 68.0 °F 68.0 °F 100% 30.05 in 10.0 mi SW 3.5 mph - N/A   Overcast
9:15 AM 69.8 °F 68.0 °F 94% 30.05 in 10.0 mi South 4.6 mph - N/A   Overcast
9:35 AM 69.8 °F 69.8 °F 100% 30.04 in 10.0 mi Calm Calm - N/A   Overcast
9:55 AM 69.8 °F 69.8 °F 100% 30.04 in 10.0 mi SW 5.8 mph - N/A   Overcast
10:15 AM 69.8 °F 68.0 °F 94% 30.04 in 10.0 mi Variable 3.5 mph - N/A   Overcast
10:35 AM 71.6 °F 69.8 °F 94% 30.04 in 10.0 mi WSW 4.6 mph - N/A   Overcast
10:55 AM 71.6 °F 69.8 °F 94% 30.04 in 10.0 mi SSW 4.6 mph - N/A   Overcast
11:15 AM 71.6 °F 69.8 °F 94% 30.04 in 10.0 mi SW 3.5 mph - N/A   Mostly Cloudy
11:35 AM 71.6 °F 69.8 °F 94% 30.04 in 10.0 mi WSW 4.6 mph - N/A   Mostly Cloudy
11:55 AM 71.6 °F 69.8 °F 94% 30.04 in 9.0 mi SW 3.5 mph - N/A   Overcast
12:15 PM 71.6 °F 69.8 °F 94% 30.04 in 9.0 mi Calm Calm - N/A   Overcast
12:35 PM 69.8 °F 69.8 °F 100% 30.04 in 0.5 mi Calm Calm - N/A   Overcast
12:55 PM 73.4 °F 71.6 °F 94% 30.04 in 10.0 mi Calm Calm - N/A   Mostly Cloudy
1:15 PM 75.2 °F 73.4 °F 94% 30.03 in 10.0 mi Calm Calm - N/A   Scattered Clouds
1:35 PM 73.4 °F 73.4 °F 100% 30.02 in 7.0 mi Variable 3.5 mph - N/A   Mostly Cloudy
2:15 PM 77.0 °F 71.6 °F 83% 30.01 in 10.0 mi Variable 3.5 mph - N/A   Partly Cloudy
2:35 PM 78.8 °F 71.6 °F 78% 30.00 in 10.0 mi SW 3.5 mph - N/A   Mostly Cloudy
2:55 PM 75.2 °F 71.6 °F 89% 30.00 in 9.0 mi SW 5.8 mph - N/A   Mostly Cloudy
3:15 PM 75.2 °F 71.6 °F 89% 30.00 in 8.0 mi SSW 4.6 mph - N/A   Mostly Cloudy
3:35 PM 78.8 °F 73.4 °F 83% 29.99 in 10.0 mi Variable 3.5 mph - N/A   Scattered Clouds
3:55 PM 78.8 °F 71.6 °F 78% 29.99 in 10.0 mi WSW 5.8 mph - N/A   Scattered Clouds
4:15 PM 78.8 °F 71.6 °F 78% 29.99 in 10.0 mi West 4.6 mph - N/A   Mostly Cloudy
4:35 PM 78.8 °F 71.6 °F 78% 29.99 in 10.0 mi WSW 5.8 mph - N/A   Mostly Cloudy
4:55 PM 78.8 °F 71.6 °F 78% 29.98 in 10.0 mi Variable 4.6 mph - N/A   Partly Cloudy
5:15 PM 78.8 °F 71.6 °F 78% 29.99 in 9.0 mi Calm Calm - N/A   Clear
5:35 PM 78.8 °F 71.6 °F 78% 29.98 in 9.0 mi Calm Calm - N/A   Partly Cloudy
5:55 PM 77.0 °F 71.6 °F 83% 29.98 in 10.0 mi Calm Calm - N/A   Scattered Clouds
6:15 PM 77.0 °F 71.6 °F 83% 29.99 in 10.0 mi Calm Calm - N/A   Mostly Cloudy
6:35 PM 77.0 °F 73.4 °F 89% 29.99 in 10.0 mi Calm Calm - N/A   Overcast
6:55 PM 77.0 °F 71.6 °F 83% 29.99 in 10.0 mi Calm Calm - N/A   Scattered Clouds
7:15 PM 73.4 °F 73.4 °F 100% 29.99 in 10.0 mi Calm Calm - N/A   Scattered Clouds
7:35 PM 71.6 °F 71.6 °F 100% 30.00 in 10.0 mi Calm Calm - N/A   Mostly Cloudy
7:55 PM 69.8 °F 69.8 °F 100% 30.00 in 9.0 mi Calm Calm - N/A   Scattered Clouds
8:15 PM 68.0 °F 68.0 °F 100% 30.00 in 9.0 mi Calm Calm - N/A   Clear
8:35 PM 68.0 °F 68.0 °F 100% 30.00 in 10.0 mi Calm Calm - N/A   Clear
8:55 PM 66.2 °F 66.2 °F 100% 30.00 in 9.0 mi East 3.5 mph - N/A   Partly Cloudy
9:15 PM 68.0 °F 68.0 °F 100% 30.01 in 10.0 mi Calm Calm - N/A   Scattered Clouds
9:35 PM 68.0 °F 68.0 °F 100% 30.01 in 10.0 mi Calm Calm - N/A   Mostly Cloudy
9:55 PM 68.0 °F 68.0 °F 100% 30.01 in 10.0 mi Calm Calm - N/A   Mostly Cloudy
10:15 PM 66.2 °F 66.2 °F 100% 30.01 in 9.0 mi Calm Calm - N/A   Partly Cloudy
10:35 PM 66.2 °F 66.2 °F 100% 30.01 in 10.0 mi Calm Calm - N/A   Mostly Cloudy
11:15 PM 66.2 °F 66.2 °F 100% 30.01 in 10.0 mi Calm Calm - N/A   Mostly Cloudy
11:35 PM 66.2 °F 66.2 °F 100% 30.01 in 8.0 mi SSE 3.5 mph - N/A   Mostly Cloudy
11:55 PM 66.2 °F 66.2 °F 100% 30.01 in 9.0 mi Calm Calm - N/A   Partly Cloudy